FW2580 Weather Reports


time (UTC)temp
F
wind
direction
speed
knots
gust
knots
rain 1hr
in
rain 24hr
in
rain mn
in
humidity
%
barometer
mb
20260502163050 85 50 1.7 5.2 0.00 0.00 0.00 8 1013.4
20260502161541 83 85 0.9 4.3 0.00 0.00 0.00 8 1013.5
20260502151553 79 64 1.7 5.2 0.00 0.00 0.00 12 1013.1
20260502123058 66 46 0.0 0.0 0.00 0.00 0.00 20 1011.3
20260502121555 65 48 0.0 0.0 0.00 0.00 0.00 20 1011.2
20260502114551 66 49 0.0 0.0 0.00 0.00 0.00 20 1011.2
20260502113053 67 43 0.0 0.0 0.00 0.00 0.00 19 1011.1
20260502111548 67 43 0.0 0.0 0.00 0.00 0.00 18 1011.0
20260502110053 68 43 0.0 0.0 0.00 0.00 0.00 17 1011.0
20260502104541 69 43 0.0 0.0 0.00 0.00 0.00 16 1010.9
20260502103038 69 43 0.0 0.0 0.00 0.00 0.00 16 1010.8
20260502101535 70 43 0.0 0.0 0.00 0.00 0.00 16 1010.7
20260502091527 74 54 1.7 3.5 0.00 0.00 0.00 11 1010.4
20260502071509 72 28 2.6 6.1 0.00 0.00 0.00 13 1009.8
20260502070015 73 342 1.7 4.3 0.00 0.00 0.00 10 1009.6
20260502064506 74 351 0.9 3.5 0.00 0.00 0.00 9 1009.6
20260502063003 75 293 0.0 1.7 0.00 0.00 0.00 10 1009.3
20260502061559 76 157 0.9 3.5 0.00 0.00 0.00 10 1009.3
20260502060054 77 167 0.0 2.6 0.00 0.00 0.00 10 1008.9
20260502054555 77 157 0.9 2.6 0.00 0.00 0.00 10 1008.9
20260502053045 77 180 0.0 0.0 0.00 0.00 0.00 10 1009.0
20260502051543 78 182 0.0 1.7 0.00 0.00 0.00 10 1008.9
20260502050042 78 186 0.0 0.9 0.00 0.00 0.00 11 1008.8
20260502044532 81 199 0.0 1.7 0.00 0.00 0.00 8 1008.7
20260502043028 82 215 0.0 2.6 0.00 0.00 0.00 6 1008.6
20260502041527 83 217 1.7 3.5 0.00 0.00 0.00 5 1008.3
20260502040019 83 248 2.6 4.3 0.00 0.00 0.00 5 1008.2
20260502034521 83 216 2.6 5.2 0.00 0.00 0.00 6 1008.1
20260502033010 84 217 3.5 5.2 0.00 0.00 0.00 6 1008.0
20260502031506 84 240 1.7 7.0 0.00 0.00 0.00 6 1007.8
20260502030002 85 250 2.6 6.1 0.00 0.00 0.00 6 1007.6
20260502024608 85 234 2.6 6.1 0.00 0.00 0.00 5 1007.5
20260502023108 86 225 1.7 8.7 0.00 0.00 0.00 5 1007.3
20260502021548 86 202 4.3 7.0 0.00 0.00 0.00 4 1007.0
20260502020053 87 188 3.5 8.7 0.00 0.00 0.00 5 1007.1
20260502014545 87 189 4.3 7.8 0.00 0.00 0.00 5 1007.0
20260502013044 88 180 2.6 7.0 0.00 0.00 0.00 4 1006.9
20260502011539 89 174 3.5 7.0 0.00 0.00 0.00 5 1006.8
20260502010036 89 227 2.6 6.1 0.00 0.00 0.00 5 1007.0
20260502004537 90 195 2.6 6.1 0.00 0.00 0.00 5 1007.1
20260502003033 90 279 1.7 3.5 0.00 0.00 0.00 5 1007.0
20260502001533 89 223 3.5 6.1 0.00 0.00 0.00 6 1007.1
20260502000056 89 238 1.7 7.0 0.00 0.00 0.00 7 1007.2
20260501234534 89 259 0.9 7.0 0.00 0.00 0.00 7 1007.4
20260501233029 89 261 5.2 8.7 0.00 0.00 0.00 8 1007.4
20260501231527 88 175 0.9 7.8 0.00 0.00 0.00 8 1007.5
20260501230027 89 323 1.7 7.0 0.00 0.00 0.00 8 1007.5
20260501224539 89 279 1.7 7.0 0.00 0.00 0.00 9 1007.6
20260501223027 90 300 0.9 4.3 0.00 0.00 0.00 8 1007.9
20260501221526 90 302 4.3 9.6 0.00 0.00 0.00 7 1008.1
20260501220030 89 249 2.6 7.8 0.00 0.00 0.00 9 1008.5
20260501214524 88 279 1.7 7.8 0.00 0.00 0.00 8 1008.7
20260501213021 89 287 0.0 3.5 0.00 0.00 0.00 7 1008.9
20260501211522 88 197 3.5 13.0 0.00 0.00 0.00 7 1009.3
20260501210019 86 154 0.0 3.5 0.00 0.00 0.00 7 1009.5
20260501204515 85 231 0.0 7.0 0.00 0.00 0.00 10 1009.7
20260501203013 86 246 1.7 5.2 0.00 0.00 0.00 11 1009.9
20260501201515 85 346 1.7 7.8 0.00 0.00 0.00 11 1009.8
20260501200015 85 248 1.7 6.1 0.00 0.00 0.00 11 1010.1
20260501194512 84 190 5.2 9.6 0.00 0.00 0.00 11 1010.2
20260501193006 83 232 3.5 6.1 0.00 0.00 0.00 12 1010.3
20260501191506 84 251 0.9 6.1 0.00 0.00 0.00 12 1010.5
20260501190004 82 207 1.7 5.2 0.00 0.00 0.00 14 1010.8
20260501184502 81 155 0.9 5.2 0.00 0.00 0.00 15 1010.9
20260501183002 82 141 2.6 9.6 0.00 0.00 0.00 16 1011.1
20260501181607 82 173 3.5 7.8 0.00 0.00 0.00 15 1011.2